This is the latest recevied weather packets stored in our database for station/object KC9DRE. If no packets are shown the sender has not sent any weather packets the latest 10 day(s).
| Time | Temp. | Humidity | Pressure | Rain* | Wind** | Luminosity | Snow |
|---|---|---|---|---|---|---|---|
| 1778356697 | 26.67° C | 43% | 1009.3 hPa | 0 mm | - | 704 W/m² | - |
| 1778356396 | 26.11° C | 46% | 1009.4 hPa | 0 mm | - | 711 W/m² | - |
| 1778356091 | 26.11° C | 42% | 1009.4 hPa | 0 mm | - | 728 W/m² | - |
| 1778355787 | 26.11° C | 42% | 1009.3 hPa | 0 mm | - | 737 W/m² | - |
| 1778355484 | 25.56° C | 45% | 1009.4 hPa | 0 mm | - | 749 W/m² | - |
| 1778355184 | 25.56° C | 48% | 1009.5 hPa | 0 mm | - | 758 W/m² | - |
| 1778354880 | 25.56° C | 48% | 1009.7 hPa | 0 mm | - | 767 W/m² | - |
| 1778354575 | 26.11° C | 45% | 1009.5 hPa | 0 mm | - | 777 W/m² | - |
| 1778354271 | 26.11° C | 43% | 1009.5 hPa | 0 mm | - | 785 W/m² | - |
| 1778353968 | 25.56° C | 46% | 1009.6 hPa | 0 mm | - | 793 W/m² | - |
| 1778353663 | 25.56° C | 47% | 1009.4 hPa | 0 mm | - | 799 W/m² | - |
| 1778353361 | 25.56° C | 45% | 1009.8 hPa | 0 mm | - | 807 W/m² | - |
| 1778353058 | 25° C | 47% | 1009.8 hPa | 0 mm | - | 815 W/m² | - |
| 1778352754 | 25.56° C | 48% | 1009.9 hPa | 0 mm | - | 821 W/m² | - |
| 1778352452 | 25° C | 48% | 1009.9 hPa | 0 mm | - | 827 W/m² | - |
| 1778352149 | 25° C | 49% | 1009.8 hPa | 0 mm | - | 829 W/m² | - |
| 1778351845 | 25° C | 46% | 1009.8 hPa | 0 mm | - | 839 W/m² | - |
| 1778351541 | 25.56° C | 47% | 1010.1 hPa | 0 mm | - | 845 W/m² | - |
| 1778351236 | 25° C | 49% | 1010 hPa | 0 mm | - | 851 W/m² | - |
| 1778350934 | 25° C | 55% | 1010.1 hPa | 0 mm | - | 859 W/m² | - |
| 1778350631 | 25° C | 52% | 1010 hPa | 0 mm | - | 858 W/m² | - |
| 1778350329 | 24.44° C | 50% | 1010.1 hPa | 0 mm | - | 866 W/m² | - |
| 1778350026 | 24.44° C | 50% | 1010 hPa | 0 mm | - | 870 W/m² | - |
| 1778349722 | 23.89° C | 52% | 1010.1 hPa | 0 mm | - | 872 W/m² | - |
| 1778349418 | 24.44° C | 50% | 1010.1 hPa | 0 mm | - | 880 W/m² | - |
* Rain latest hour (hover to see other rain measurements)
** Current wind speed in m/s (hover to see current wind gust speed)